Weather History for Selawik, AK

Change the Weather History Date:

Sunday, May 19, 2013

  Actual Average Record
Temperature  
Mean Temperature 30 °F -  
Max Temperature 35 °F 41 °F 64 °F (2002)
Min Temperature 24 °F 27 °F 12 °F (2001)
Degree Days  
Heating Degree Days 36    
Moisture  
Dew Point 27 °F    
Average Humidity 83    
Maximum Humidity 93    
Minimum Humidity 70    
Precipitation  
Precipitation 0.00 in - - ()
Sea Level Pressure  
Sea Level Pressure 30.29 in    
Wind  
Wind Speed 13 mph (South)    
Max Wind Speed 23 mph    
Max Gust Speed 28 mph    
Visibility 8 miles    
Events      
Averages and records for this station are not official NWS values.
T = Trace of Precipitation, MM = Missing Value Source: NWS Daily Summary

Daily Weather History Graph

Daily Weather History Graph

Search for Another Location

Airport:

Trip Planner

Search our weather history database for the weather conditions in past years. The results will help you decide how hot, cold, wet, or windy it might be!

Date:

Astronomy

May. 19, 2013 Rise Set
Actual Time 4:32 AM AKDT 12:44 AM AKDT
Civil Twilight Sun does not rise Sun does not rise
Nautical Twilight Sun does not rise Sun does not rise
Astronomical Twilight Sun does not rise Sun does not rise
Moon 4:11 PM AKDT (5/19) 4:01 AM AKDT (5/19)
Length of Visible Light 24h 00m
Length of Day
20h 11m
Waxing Gibbous, 66% of the Moon is Illuminated
May 19
Waxing Gibbous
May 24
Full
May 31
Last Quarter
Jun 8
New
Jun 16
First Quarter

Hourly Weather History & Observations

Time (AKDT) Temp. Windchill Dew Point Humidity Pressure Visibility Wind Dir Wind Speed Gust Speed Precip Events Conditions
12:16 AM 26.6 °F 16.2 °F 21.2 °F 80% 30.14 in 10.0 mi South 11.5 mph - N/A   Overcast
12:36 AM 26.6 °F 17.5 °F 21.2 °F 80% 30.14 in 10.0 mi South 9.2 mph - N/A   Overcast
12:56 AM 26.6 °F 18.2 °F 21.2 °F 80% 30.15 in 2.5 mi South 8.1 mph - N/A   Overcast
1:16 AM 26.6 °F 17.5 °F 23.0 °F 86% 30.15 in 2.0 mi South 9.2 mph - N/A   Overcast
1:36 AM 26.6 °F 17.5 °F 23.0 °F 86% 30.15 in 3.0 mi South 9.2 mph - N/A   Overcast
1:56 AM 26.6 °F 16.8 °F 23.0 °F 86% 30.15 in 10.0 mi South 10.4 mph - N/A   Overcast
2:16 AM 26.6 °F 18.2 °F 21.2 °F 80% 30.16 in 10.0 mi South 8.1 mph - N/A   Overcast
2:36 AM 26.6 °F 18.2 °F 21.2 °F 80% 30.17 in 10.0 mi South 8.1 mph - N/A   Overcast
2:56 AM 26.6 °F 17.5 °F 21.2 °F 80% 30.17 in 10.0 mi South 9.2 mph - N/A   Overcast
3:16 AM 26.6 °F 18.2 °F 21.2 °F 80% 30.18 in 10.0 mi SE 8.1 mph - N/A   Overcast
3:36 AM 24.8 °F 17.9 °F 21.2 °F 86% 30.19 in 10.0 mi South 5.8 mph - N/A   Overcast
4:16 AM 26.6 °F 15.7 °F 24.8 °F 93% 30.19 in 10.0 mi South 12.7 mph - N/A   Mostly Cloudy
4:36 AM 28.4 °F 18.5 °F 24.8 °F 86% 30.19 in 10.0 mi South 11.5 mph - N/A   Overcast
4:56 AM 28.4 °F 18.0 °F 24.8 °F 86% 30.20 in 10.0 mi South 12.7 mph - N/A   Overcast
5:16 AM 28.4 °F 18.5 °F 24.8 °F 86% 30.20 in 10.0 mi South 11.5 mph - N/A   Overcast
5:36 AM 28.4 °F 19.1 °F 24.8 °F 86% 30.21 in 10.0 mi South 10.4 mph - N/A   Overcast
5:56 AM 28.4 °F 18.5 °F 24.8 °F 86% 30.21 in 10.0 mi South 11.5 mph - N/A   Overcast
6:16 AM 28.4 °F 17.5 °F 24.8 °F 86% 30.21 in 3.0 mi South 13.8 mph 19.6 mph N/A   Overcast
6:36 AM 28.4 °F 18.5 °F 26.6 °F 93% 30.22 in 1.5 mi South 11.5 mph - N/A   Overcast
6:56 AM 28.4 °F 18.5 °F 26.6 °F 93% 30.22 in 1.5 mi South 11.5 mph - N/A   Overcast
7:16 AM 28.4 °F 17.5 °F 26.6 °F 93% 30.23 in 0.8 mi South 13.8 mph - N/A   Overcast
7:36 AM 28.4 °F 15.8 °F 26.6 °F 93% 30.22 in 2.5 mi South 18.4 mph - N/A   Overcast
7:56 AM 28.4 °F 17.5 °F 26.6 °F 93% 30.23 in 1.8 mi South 13.8 mph 20.7 mph N/A   Overcast
8:16 AM 28.4 °F 15.8 °F 24.8 °F 86% 30.22 in 3.0 mi South 18.4 mph 24.2 mph N/A   Overcast
8:36 AM 30.2 °F 19.3 °F 26.6 °F 86% 30.23 in 2.5 mi South 15.0 mph 23.0 mph N/A   Overcast
8:56 AM 30.2 °F 19.8 °F 26.6 °F 86% 30.24 in 7.0 mi South 13.8 mph - N/A   Overcast
9:16 AM 30.2 °F 20.2 °F 26.6 °F 86% 30.24 in 10.0 mi South 12.7 mph - N/A   Overcast
9:36 AM 30.2 °F 19.3 °F 24.8 °F 80% 30.25 in 10.0 mi South 15.0 mph - N/A   Overcast
9:56 AM 30.2 °F 18.9 °F 26.6 °F 86% 30.24 in 10.0 mi South 16.1 mph 20.7 mph N/A   Overcast
10:16 AM 30.2 °F 18.5 °F 26.6 °F 86% 30.24 in 10.0 mi South 17.3 mph 25.3 mph N/A   Overcast
10:36 AM 30.2 °F 18.1 °F 26.6 °F 86% 30.25 in 9.0 mi South 18.4 mph 26.5 mph N/A   Overcast
10:56 AM 30.2 °F 17.4 °F 28.4 °F 93% 30.24 in 2.0 mi South 20.7 mph - N/A   Overcast
11:16 AM 32.0 °F 19.8 °F 28.4 °F 87% 30.25 in 2.0 mi South 20.7 mph - N/A   Overcast
11:36 AM 32.0 °F 19.8 °F 28.4 °F 87% 30.25 in 1.5 mi South 20.7 mph 27.6 mph N/A   Overcast
11:56 AM 32.0 °F 19.8 °F 28.4 °F 87% 30.26 in 1.2 mi South 20.7 mph 25.3 mph N/A   Overcast
12:16 PM 32.0 °F 20.5 °F 28.4 °F 87% 30.26 in 5.0 mi South 18.4 mph 25.3 mph N/A   Overcast
12:36 PM 33.8 °F 22.5 °F 28.4 °F 81% 30.26 in 5.0 mi South 19.6 mph 24.2 mph N/A   Overcast
12:56 PM 33.8 °F 22.8 °F 28.4 °F 81% 30.27 in 1.5 mi South 18.4 mph 24.2 mph N/A   Overcast
1:16 PM 33.8 °F 21.6 °F 30.2 °F 87% 30.28 in 1.2 mi SSW 23.0 mph 27.6 mph N/A   Overcast
1:36 PM 33.8 °F 22.5 °F 30.2 °F 87% 30.28 in 1.2 mi SSW 19.6 mph 26.5 mph N/A   Overcast
1:56 PM 33.8 °F 22.5 °F 30.2 °F 87% 30.28 in 8.0 mi South 19.6 mph 25.3 mph N/A   Overcast
2:16 PM 35.6 °F 25.2 °F 30.2 °F 81% 30.29 in 10.0 mi South 18.4 mph - N/A   Overcast
2:36 PM 35.6 °F 25.5 °F 30.2 °F 81% 30.31 in 10.0 mi South 17.3 mph 23.0 mph N/A   Overcast
2:56 PM 35.6 °F 25.2 °F 30.2 °F 81% 30.32 in 10.0 mi SSW 18.4 mph 24.2 mph N/A   Overcast
3:16 PM 35.6 °F 24.5 °F 30.2 °F 81% 30.32 in 9.0 mi SSW 20.7 mph - N/A   Mostly Cloudy
3:36 PM 35.6 °F 25.9 °F 30.2 °F 81% 30.33 in 5.0 mi SSW 16.1 mph 24.2 mph N/A   Overcast
3:56 PM 35.6 °F 24.5 °F 30.2 °F 81% 30.34 in 10.0 mi SSW 20.7 mph 24.2 mph N/A   Overcast
4:16 PM 35.6 °F 25.5 °F 30.2 °F 81% 30.35 in 10.0 mi SSW 17.3 mph 21.9 mph N/A   Overcast
4:36 PM 35.6 °F 24.8 °F 30.2 °F 81% 30.36 in 10.0 mi SSW 19.6 mph - N/A   Overcast
4:56 PM 35.6 °F 24.8 °F 30.2 °F 81% 30.36 in 10.0 mi SSW 19.6 mph 27.6 mph N/A   Overcast
5:16 PM 35.6 °F 25.2 °F 30.2 °F 81% 30.37 in 10.0 mi SSW 18.4 mph 23.0 mph N/A   Overcast
5:36 PM 35.6 °F 25.5 °F 30.2 °F 81% 30.38 in 10.0 mi South 17.3 mph 24.2 mph N/A   Overcast
5:56 PM 35.6 °F 25.5 °F 30.2 °F 81% 30.39 in 10.0 mi SSW 17.3 mph 21.9 mph N/A   Overcast
6:16 PM 35.6 °F 26.2 °F 30.2 °F 81% 30.40 in 10.0 mi South 15.0 mph - N/A   Overcast
6:36 PM 35.6 °F 26.2 °F 30.2 °F 81% 30.40 in 10.0 mi South 15.0 mph - N/A   Overcast
6:56 PM 35.6 °F 27.1 °F 32.0 °F 87% 30.41 in 10.0 mi SSW 12.7 mph - N/A   Overcast
7:16 PM 35.6 °F 27.5 °F 30.2 °F 81% 30.42 in 10.0 mi South 11.5 mph - N/A   Overcast
7:36 PM 35.6 °F 27.5 °F 30.2 °F 81% 30.42 in 10.0 mi SSW 11.5 mph - N/A   Overcast
7:56 PM 35.6 °F 27.1 °F 30.2 °F 81% 30.42 in 10.0 mi SSW 12.7 mph - N/A   Mostly Cloudy
8:16 PM 35.6 °F 27.5 °F 30.2 °F 81% 30.43 in 10.0 mi South 11.5 mph - N/A   Mostly Cloudy
8:36 PM 35.6 °F 26.6 °F 28.4 °F 75% 30.43 in 10.0 mi South 13.8 mph - N/A   Overcast
8:56 PM 35.6 °F 27.5 °F 28.4 °F 75% 30.44 in 10.0 mi South 11.5 mph - N/A   Overcast
9:16 PM 35.6 °F 26.6 °F 28.4 °F 75% 30.44 in 10.0 mi South 13.8 mph - N/A   Overcast
9:36 PM 35.6 °F 26.6 °F 28.4 °F 75% 30.44 in 10.0 mi SSW 13.8 mph - N/A   Overcast
9:56 PM 33.8 °F 23.5 °F 28.4 °F 81% 30.44 in 10.0 mi SSW 16.1 mph 19.6 mph N/A   Overcast
10:16 PM 35.6 °F 26.6 °F 26.6 °F 70% 30.45 in 10.0 mi SSW 13.8 mph - N/A   Overcast
10:36 PM 33.8 °F 24.3 °F 26.6 °F 75% 30.45 in 10.0 mi SSW 13.8 mph - N/A   Overcast
10:56 PM 33.8 °F 24.8 °F 26.6 °F 75% 30.45 in 10.0 mi SSW 12.7 mph - N/A   Overcast
11:16 PM 33.8 °F 26.4 °F 26.6 °F 75% 30.46 in 10.0 mi SSE 9.2 mph - N/A   Overcast
11:36 PM 33.8 °F 25.3 °F 28.4 °F 81% 30.46 in 10.0 mi South 11.5 mph - N/A   Overcast
11:56 PM 33.8 °F 25.8 °F 28.4 °F 81% 30.48 in 9.0 mi South 10.4 mph - N/A   Mostly Cloudy